Location: Unspecified
(0.0000°N, 0.0000°E)
Time: 13:48:47
(UTC+00:00)

Hubble Space Telescope - Pass Details

Date: 30 March 2020
Orbit: 536 x 540 km, 28.5° (Epoch: 01 April)

Event Time Altitude Azimuth Distance (km) Brightness Sun altitude
Rises 18:52:19 0° 232° (SW) 2,670 5.1 -12.0°
Reaches altitude 10° 18:54:37 10° 228° (SW) 1,778 4.1 -12.6°
Maximum altitude 18:58:39 54° 150° (SSE) 649 0.9 -13.6°
Enters shadow 19:00:57 23° 81° (E) 1,151 1.9 -14.1°
